Regional Weather Roundup
Issued by NWS Upton, NY

Home | Current Version | Previous Version | Text Only | Print | Product List | Glossary On
Versions: 1 2 3 4 5 6 7 8 9 10 11 12 13 14 15 16 17 18 19 20 21 22 23 24 25 26 27
000
ASUS41 KOKX 230908
RWROKX

REGIONAL WEATHER ROUNDUP
NATIONAL WEATHER SERVICE NEW YORK NY
500 AM EDT SAT SEP 23 2017

NOTE: "FAIR" INDICATES FEW OR NO CLOUDS BELOW 12,000 FEET WITH NO
SIGNIFICANT WEATHER AND/OR OBSTRUCTIONS TO VISIBILITY.

NYZ071-072-176-178-NJZ106-104-231000-
NEW YORK CITY METRO AREA

CITY           SKY/WX    TMP DP  RH WIND       PRES   REMARKS
Central Park   CLEAR     70  53  54 VRB3      30.02R
Bronx Bot Gard   N/A     68  54  60 N6        29.99F
LaGuardia APRT PTCLDY    71  57  61 N12       29.98R
Kennedy INTL   PTCLDY    71  55  56 N12       29.98R
Breezy Point     N/A     70 N/A N/A N7          N/A
Newark/Liberty CLEAR     70  51  51 N13       29.98S
Teterboro      CLEAR     69  52  54 NW9       29.99R
$$

NYZ177-179-078>081-231000-
LONG ISLAND NEW YORK

CITY           SKY/WX    TMP DP  RH WIND       PRES   REMARKS
Jones Beach      N/A     68 N/A N/A N9          N/A
Matinecock PT    N/A     70 N/A N/A N5          N/A
Farmingdale    MOCLDY    70  57  63 N10       29.96S
MacArthur/ISP  CLOUDY    70  56  61 N14       29.95R
Shirley        CLOUDY    71  58  63 N13G23    29.95R
Mt Sinai Harb    N/A    N/A N/A N/A N17         N/A
Westhampton    CLOUDY    68  56  65 N15       29.95R
East Hampton   CLOUDY    65  59  79 N13G23    29.92S
Montauk          N/A     66  62  87 N15G23    29.93S
$$

NYZ052-065-067-231000-
HUDSON VALLEY

CITY           SKY/WX    TMP DP  RH WIND       PRES   REMARKS
White Plains   CLEAR     67  53  61 N10       29.99R
Larchmont Harb   N/A     70 N/A N/A NW3         N/A
Croton On Huds   N/A     66 N/A N/A CALM        N/A
Newburgh       PTCLDY    63  54  72 CALM      30.04S
Montgomery     CLEAR     57  54  89 CALM      30.03S
Poughkeepsie   CLEAR     60  53  77 SE5       30.01S
Albany         CLEAR     54  51  90 NW6       30.05F
$$

NJZ001-105-106-008-010-013-015-019>022-104-231000-
NEW JERSEY

CITY           SKY/WX    TMP DP  RH WIND       PRES   REMARKS
Newark/Liberty CLEAR     70  51  51 N13       29.98S
Teterboro      CLEAR     69  52  54 NW9       29.99R
Caldwell       CLEAR     65  53  65 CALM      30.02R
Somerville     NOT AVBL
Linden         FAIR      68  50  52 N6        29.99S
Perth Amboy      N/A     70 N/A N/A NW8         N/A
Sussex         CLEAR     56  55  97 CALM      30.05R
Andover          N/A     57  56  96 CALM      30.05R
Trenton        CLEAR     66  55  67 N7        30.01R
Millville      CLEAR     69  59  70 N8        29.99S
Atlantic City  CLOUDY    68  57  68 N8        29.99R
Wrightstown    PTCLDY    66  55  67 NW9       29.97S
Toms River     MOCLDY    66  55  67 N7        29.99S
Belmar         PTCLDY    66  55  67 NW8       30.00R
$$

PAZ047>061-062-071-231000-
EASTERN PENNSYLVANIA

CITY           SKY/WX    TMP DP  RH WIND       PRES   REMARKS
Philadelphia   PTCLDY    69  51  52 NW6       30.02R
Allentown      PTCLDY    60  54  80 SW6       30.04R
Scranton       CLEAR     53  51  93 SE3       30.08S
$$

CTZ002-004>006-009-010-012-RIZ004-006-007-MAZ004-011-015-231000-
SOUTHERN NEW ENGLAND
 IN CT

CITY           SKY/WX    TMP DP  RH WIND       PRES   REMARKS
Bradley INTL   MOCLDY    67  49  52 N9        30.00S
Hartford       CLOUDY    69  52  54 N12       29.98S
Danbury        CLEAR     68  53  58 NE5       30.01S
Wtrbury/Oxford CLOUDY    67  54  63 N16       30.00S
Norwalk Harbor   N/A     70 N/A N/A N15         N/A
Bridgeport     MOCLDY    70  54  56 N13       29.96S
Meriden        CLOUDY    69  51  52 N8        29.98S
New Haven      MOCLDY    69  51  52 N17       29.96F
Chester        PTSUNNY   68  55  64 N12G18    29.97R
Groton         PTCLDY    66  57  72 N18G26    29.93R
Wilimantic     CLOUDY    68  55  63 N8        29.98S

 IN RI

CITY           SKY/WX    TMP DP  RH WIND       PRES   REMARKS
Providence     CLOUDY    62  62 100 N15       29.97R
Block Island   CLOUDY    63  61  93 N17G29    29.91S
Westerly       CLOUDY    65  60  84 N13       29.94R
 IN MA

CITY           SKY/WX    TMP DP  RH WIND       PRES   REMARKS
Boston         CLOUDY    61  59  93 N14       29.99S
Worcester      CLOUDY    63  46  54 N12G18    30.02S
Westfield      PTCLDY    67  50  54 N9        30.01S
Provincetown   FOG       59  59 100 NE20      29.94S VSB 1/2
Nantucket      LGT RAIN  62  62 100 N21G26    29.86R FOG
$$

ANZ330-335-338-340-345-350-353-355-231000-
COASTAL MARINE OBSERVATIONS


STATION/POSITION TIME  SKY/WX   TEMP    WIND        PRES    VSBY  WAVE
                                AIR SEA DIR/SP/G                  HT/PER
                 (UTC)          (F)     (DEG/KT/KT) (MB)    (MI)  (FT/S)
NY HARB ENTRANCE 0750            71 70  350/ 16/ 17 1013.6          4/ 9
20 S FIRE ISLAND 0750            68 66  360/ 17/ 21 1013.2          6/ 7
GREAT SOUTH BAY  0830            70 69  360/ 19/ 23   N/A
23 SSW MONTAUK P 0750            65 65              1012.1          6/ 7
15 E BARNEGAT LI 0800               69                N/A           6/ 9
HUDSON CANYON    0750            67 69   10/ 23/ 29 1011.2          8/ 8
KINGS POINT      0824            71 71   40/  9/ 11 1015.9
EXECUTION ROCKS  0845            71     360/  2/  4   N/A
WESTERN LI SOUND NOT AVBL
CENTRAL LI SOUND 0845            69     360/ 16/ 19   N/A           2
EASTERN LI SOUND NOT AVBL
ROBBINS REEF     0824            71     340/ 12/ 15 1015.8
$$


>>>>>>>>>>>>>>>>>>>>>>>>>>>> KEY <<<<<<<<<<<<<<<<<<<<<<<<<<<
>                                                          <
>     SKY/WX - Sky Condition/Present Weather               <
>     TMP    - Temperature in Fahrenheit                   <
>     DP     - Dew Point in Fahrenheit                     <
>     RH     - Relative Humidity in Percent                <
>     WIND   - Direction (from) and Speed in MPH           <
>     PRES   - Mean Sea Level Pressure (inches of Hg)      <
>     WCI    - Wind Chill Index                            <
>     VSB    - VISIBILITY IN MILES                         <
>     HX     - HEAT INDEX                                  <
>     TC     - TEMPERATURE IN CELSIUS                      <
>     VRB    - VARIABLE WIND DIRECTION                     <
>                                                          <
>>>>>>>>>>>>>>>>>>>>>>>>>>>> KEY <<<<<<<<<<<<<<<<<<<<<<<<<<<




USA.gov is the U.S. government's official web portal to all federal, state and local government web resources and services.